EAG2CB EGAC-EGFF

Flight info

Callsign EAG2CB
Flight time N/A
Altitude 19000
Route DUFFY L15 PEPOD Q38 MALUD L15 RISLA N862 WEVBE
Aircraft AT76/M-SDFGIRY/S

Departure

Time 2026-04-20 17:58
Airport George Best Belfast City Airport (EGAC)

Arrival

Time N/A
Airport Cardiff International Airport (EGFF)
Time Latitude Longitude Altitude Speed Heading
2026-04-20 16:00 54.61433 -5.87217 20 ft 0 kts 124°
2026-04-20 17:51 54.61440 -5.87235 20 ft 4 kts 129°
2026-04-20 17:51 54.61459 -5.87267 20 ft 4 kts 150°
2026-04-20 17:51 54.61482 -5.87279 22 ft 4 kts 199°
2026-04-20 17:51 54.61492 -5.87270 20 ft 1 kts 214°
2026-04-20 17:54 54.61482 -5.87282 21 ft 6 kts 214°
2026-04-20 17:54 54.61433 -5.87343 20 ft 12 kts 218°
2026-04-20 17:55 54.61371 -5.87456 20 ft 14 kts 217°
2026-04-20 17:55 54.61282 -5.87566 20 ft 17 kts 214°
2026-04-20 17:55 54.61182 -5.87684 19 ft 18 kts 214°
2026-04-20 17:55 54.61102 -5.87784 19 ft 8 kts 223°
2026-04-20 17:56 54.61087 -5.87824 19 ft 0 kts 247°
2026-04-20 17:56 54.61083 -5.87856 21 ft 7 kts 259°
2026-04-20 17:57 54.61104 -5.87956 19 ft 10 kts 305°
2026-04-20 17:57 54.61156 -5.88022 19 ft 8 kts
2026-04-20 17:57 54.61172 -5.88011 19 ft 0 kts 31°
2026-04-20 17:57 54.61288 -5.87873 17 ft 50 kts 34°
2026-04-20 17:58 54.61739 -5.87335 22 ft 104 kts 35°
2026-04-20 17:58 54.62384 -5.86565 298 ft 118 kts 35°
2026-04-20 17:58 54.63080 -5.85748 676 ft 123 kts 34°
2026-04-20 17:58 54.63854 -5.84917 823 ft 145 kts 32°
2026-04-20 17:59 54.64791 -5.83969 982 ft 161 kts 32°
2026-04-20 17:59 54.65766 -5.82994 1337 ft 163 kts 33°
2026-04-20 17:59 54.66739 -5.82010 1709 ft 161 kts 39°
2026-04-20 17:59 54.67247 -5.80376 2027 ft 163 kts 91°
2026-04-20 18:00 54.66721 -5.78686 2426 ft 170 kts 142°
2026-04-20 18:00 54.65559 -5.78292 2806 ft 180 kts 191°
2026-04-20 18:00 54.64440 -5.79302 3160 ft 184 kts 208°
2026-04-20 18:00 54.63323 -5.80340 3607 ft 180 kts 197°
2026-04-20 18:01 54.62114 -5.80906 3960 ft 180 kts 188°
2026-04-20 18:01 54.60889 -5.81388 4374 ft 179 kts 189°
2026-04-20 18:01 54.59668 -5.81884 4768 ft 181 kts 191°
2026-04-20 18:01 54.58450 -5.82459 5148 ft 182 kts 192°
2026-04-20 18:02 54.57230 -5.83077 5539 ft 183 kts 192°
2026-04-20 18:02 54.56022 -5.83691 5893 ft 184 kts 194°
2026-04-20 18:02 54.54792 -5.84316 6282 ft 185 kts 194°
2026-04-20 18:02 54.53553 -5.84954 6649 ft 186 kts 193°
2026-04-20 18:03 54.52307 -5.85608 6997 ft 187 kts 194°
2026-04-20 18:03 54.51049 -5.85555 7318 ft 182 kts 154°
2026-04-20 18:03 54.49946 -5.84468 7601 ft 183 kts 145°
2026-04-20 18:03 54.48898 -5.83197 7957 ft 183 kts 141°
2026-04-20 18:04 54.47892 -5.81911 8309 ft 183 kts 141°
2026-04-20 18:04 54.46868 -5.80593 8671 ft 184 kts 141°
2026-04-20 18:04 54.45832 -5.79270 8998 ft 186 kts 142°
2026-04-20 18:04 54.44773 -5.77960 9316 ft 188 kts 143°
2026-04-20 18:05 54.42612 -5.75388 9996 ft 189 kts 143°
2026-04-20 18:05 54.41523 -5.74116 10331 ft 190 kts 143°
2026-04-20 18:05 54.40427 -5.72830 10611 ft 192 kts 143°
2026-04-20 18:06 54.39325 -5.71524 10890 ft 193 kts 143°
2026-04-20 18:06 54.38219 -5.70201 11163 ft 195 kts 143°
2026-04-20 18:06 54.37099 -5.68868 11428 ft 197 kts 144°
2026-04-20 18:06 54.35967 -5.67506 11663 ft 201 kts 145°
2026-04-20 18:07 54.34825 -5.66120 11941 ft 202 kts 145°
2026-04-20 18:07 54.33688 -5.64744 12209 ft 203 kts 145°
2026-04-20 18:07 54.32525 -5.63347 12483 ft 205 kts 146°
2026-04-20 18:07 54.31345 -5.61937 12721 ft 207 kts 146°
2026-04-20 18:08 54.30159 -5.60534 12986 ft 209 kts 146°
2026-04-20 18:08 54.28961 -5.59115 13256 ft 209 kts 146°
2026-04-20 18:08 54.27762 -5.57695 13545 ft 209 kts 146°
2026-04-20 18:08 54.26618 -5.56153 13798 ft 210 kts 131°
2026-04-20 18:09 54.25746 -5.54123 13995 ft 213 kts 123°
2026-04-20 18:09 54.24935 -5.51996 14227 ft 214 kts 123°
2026-04-20 18:09 54.24121 -5.49854 14460 ft 215 kts 123°
2026-04-20 18:09 54.23280 -5.47735 14675 ft 216 kts 125°
2026-04-20 18:10 54.22404 -5.45636 14886 ft 218 kts 126°
2026-04-20 18:10 54.21516 -5.43538 15111 ft 218 kts 126°
2026-04-20 18:10 54.20636 -5.41462 15324 ft 219 kts 126°
2026-04-20 18:10 54.19743 -5.39345 15539 ft 220 kts 126°
2026-04-20 18:11 54.18851 -5.37224 15761 ft 220 kts 126°
2026-04-20 18:11 54.17946 -5.35101 15969 ft 221 kts 126°
2026-04-20 18:11 54.17038 -5.32972 16170 ft 222 kts 126°
2026-04-20 18:11 54.16130 -5.30831 16375 ft 223 kts 126°
2026-04-20 18:12 54.15217 -5.28686 16560 ft 225 kts 126°
2026-04-20 18:12 54.14297 -5.26522 16758 ft 225 kts 126°
2026-04-20 18:12 54.13386 -5.24383 16944 ft 226 kts 126°
2026-04-20 18:12 54.12467 -5.22215 17123 ft 226 kts 126°
2026-04-20 18:13 54.11543 -5.20036 17297 ft 227 kts 126°
2026-04-20 18:13 54.10607 -5.17863 17470 ft 228 kts 126°
2026-04-20 18:13 54.09672 -5.15678 17646 ft 229 kts 126°
2026-04-20 18:13 54.08733 -5.13480 17850 ft 229 kts 126°
2026-04-20 18:14 54.07794 -5.11280 18030 ft 230 kts 126°
2026-04-20 18:14 54.06847 -5.09065 18208 ft 231 kts 126°
2026-04-20 18:14 54.05896 -5.06848 18383 ft 232 kts 126°
2026-04-20 18:14 54.04943 -5.04623 18554 ft 233 kts 126°
2026-04-20 18:15 54.03984 -5.02394 18704 ft 234 kts 126°
2026-04-20 18:15 54.03007 -5.00170 18834 ft 235 kts 127°
2026-04-20 18:15 54.02021 -4.97996 18972 ft 235 kts 128°
2026-04-20 18:15 54.01016 -4.95781 19117 ft 235 kts 128°
2026-04-20 18:16 54.00013 -4.93569 19211 ft 238 kts 128°
2026-04-20 18:16 53.98993 -4.91321 19253 ft 242 kts 128°
2026-04-20 18:16 53.97949 -4.89027 19273 ft 247 kts 128°
2026-04-20 18:16 53.96886 -4.86691 19284 ft 252 kts 128°
2026-04-20 18:17 53.95807 -4.84318 19289 ft 256 kts 128°
2026-04-20 18:17 53.94713 -4.81913 19285 ft 259 kts 128°
2026-04-20 18:17 53.93605 -4.79485 19285 ft 261 kts 128°
2026-04-20 18:17 53.92502 -4.77068 19288 ft 264 kts 128°
2026-04-20 18:18 53.91376 -4.74599 19284 ft 265 kts 128°
2026-04-20 18:18 53.90241 -4.72111 19281 ft 267 kts 128°
2026-04-20 18:18 53.89098 -4.69623 19287 ft 268 kts 128°
2026-04-20 18:18 53.87952 -4.67116 19291 ft 269 kts 128°
2026-04-20 18:19 53.86805 -4.64614 19290 ft 270 kts 128°
2026-04-20 18:19 53.85646 -4.62091 19286 ft 271 kts 128°
2026-04-20 18:19 53.84488 -4.59566 19288 ft 271 kts 128°
2026-04-20 18:19 53.83327 -4.57047 19288 ft 271 kts 128°
2026-04-20 18:20 53.82162 -4.54517 19282 ft 272 kts 128°
2026-04-20 18:20 53.80998 -4.51994 19287 ft 272 kts 128°
2026-04-20 18:20 53.79851 -4.49508 19287 ft 272 kts 128°
2026-04-20 18:20 53.78683 -4.46977 19287 ft 272 kts 128°
2026-04-20 18:21 53.77508 -4.44443 19285 ft 273 kts 128°
2026-04-20 18:21 53.76341 -4.41921 19281 ft 273 kts 128°
2026-04-20 18:21 53.75173 -4.39398 19281 ft 273 kts 128°
2026-04-20 18:21 53.74003 -4.36876 19286 ft 273 kts 128°
2026-04-20 18:22 53.72831 -4.34350 19283 ft 273 kts 128°
2026-04-20 18:22 53.71659 -4.31832 19286 ft 273 kts 128°
2026-04-20 18:22 53.70487 -4.29312 19283 ft 273 kts 128°
2026-04-20 18:22 53.69311 -4.26789 19286 ft 273 kts 128°
2026-04-20 18:23 53.68138 -4.24273 19284 ft 273 kts 128°
2026-04-20 18:23 53.66981 -4.21790 19284 ft 273 kts 128°
2026-04-20 18:23 53.65803 -4.19272 19273 ft 273 kts 128°
2026-04-20 18:23 53.64626 -4.16753 19279 ft 273 kts 128°
2026-04-20 18:24 53.63451 -4.14246 19288 ft 273 kts 128°
2026-04-20 18:24 53.62272 -4.11730 19288 ft 273 kts 128°
2026-04-20 18:24 53.61093 -4.09214 19285 ft 273 kts 128°
2026-04-20 18:24 53.59912 -4.06701 19284 ft 274 kts 128°
2026-04-20 18:25 53.58729 -4.04182 19282 ft 274 kts 128°
2026-04-20 18:25 53.57561 -4.01698 19283 ft 274 kts 128°
2026-04-20 18:25 53.56375 -3.99183 19281 ft 274 kts 128°
2026-04-20 18:25 53.55193 -3.96673 19283 ft 274 kts 128°
2026-04-20 18:26 53.54006 -3.94162 19283 ft 274 kts 128°
2026-04-20 18:26 53.52822 -3.91654 19281 ft 274 kts 128°
2026-04-20 18:26 53.51636 -3.89142 19279 ft 274 kts 128°
2026-04-20 18:26 53.50447 -3.86633 19284 ft 274 kts 128°
2026-04-20 18:27 53.49262 -3.84130 19281 ft 274 kts 128°
2026-04-20 18:27 53.48089 -3.81659 19279 ft 274 kts 128°
2026-04-20 18:27 53.46903 -3.79160 19281 ft 274 kts 128°
2026-04-20 18:27 53.45719 -3.76668 19278 ft 274 kts 128°
2026-04-20 18:28 53.44531 -3.74171 19283 ft 274 kts 128°
2026-04-20 18:28 53.43344 -3.71675 19276 ft 274 kts 128°
2026-04-20 18:28 53.42152 -3.69178 19283 ft 274 kts 128°
2026-04-20 18:28 53.40964 -3.66687 19281 ft 274 kts 128°
2026-04-20 18:29 53.39774 -3.64194 19274 ft 274 kts 129°
2026-04-20 18:29 53.38581 -3.61701 19277 ft 274 kts 128°
2026-04-20 18:29 53.37391 -3.59214 19284 ft 273 kts 128°
2026-04-20 18:29 53.36201 -3.56729 19281 ft 273 kts 128°
2026-04-20 18:30 53.35025 -3.54268 19276 ft 273 kts 128°
2026-04-20 18:30 53.33835 -3.51794 19278 ft 273 kts 128°
2026-04-20 18:30 53.32646 -3.49319 19282 ft 273 kts 128°
2026-04-20 18:30 53.31455 -3.46842 19280 ft 273 kts 128°
2026-04-20 18:31 53.30265 -3.44373 19280 ft 273 kts 128°
2026-04-20 18:31 53.29477 -3.42735 19276 ft 273 kts 128°
2026-04-20 18:31 53.28286 -3.40265 19282 ft 273 kts 128°
2026-04-20 18:31 53.27095 -3.37797 19278 ft 273 kts 128°
2026-04-20 18:32 53.25904 -3.35328 19283 ft 273 kts 128°
2026-04-20 18:32 53.24323 -3.32062 19281 ft 273 kts 128°
2026-04-20 18:32 53.23135 -3.29605 19282 ft 272 kts 128°
2026-04-20 18:32 53.22328 -3.27946 19285 ft 272 kts 128°
2026-04-20 18:33 53.21136 -3.25488 19287 ft 273 kts 128°
2026-04-20 18:33 53.19943 -3.23030 19286 ft 273 kts 129°
2026-04-20 18:33 53.18748 -3.20572 19285 ft 273 kts 129°
2026-04-20 18:33 53.17568 -3.18143 19288 ft 273 kts 129°
2026-04-20 18:34 53.16367 -3.15681 19291 ft 273 kts 129°
2026-04-20 18:34 53.15169 -3.13223 19292 ft 273 kts 129°
2026-04-20 18:34 53.13967 -3.10761 19297 ft 273 kts 129°
2026-04-20 18:34 53.12768 -3.08305 19295 ft 274 kts 129°
2026-04-20 18:35 53.11565 -3.05840 19291 ft 274 kts 129°
2026-04-20 18:35 53.10361 -3.03393 19297 ft 274 kts 129°
2026-04-20 18:35 53.09156 -3.00933 19295 ft 273 kts 128°